Regional Weather Roundup
Issued by NWS

Home | Current Version | Previous Version | Text Only | Print | Product List | Glossary Off
Versions: 1 2 3 4 5 6 7 8 9 10 11 12 13 14 15 16 17 18 19 20 21 22 23 24 25 26 27 28 29 30 31 32 33 34 35 36 37 38 39 40 41 42 43 44 45 46 47 48 49 50

000
ASUS43 KLOT 210508
RWRIL

ILLINOIS REGIONAL WEATHER ROUNDUP
NATIONAL WEATHER SERVICE CHICAGO/ROMEOVILLE IL
1100 PM CST FRI JAN 20 2017

NOTE: "FAIR" INDICATES FEW OR NO CLOUDS BELOW 12,000 FEET WITH NO
SIGNIFICANT WEATHER AND/OR OBSTRUCTIONS TO VISIBILITY.

* THESE STATIONS ARE NOT UNDER NWS QUALITY CONTROL. THEY ALSO MAY NOT
  REPORT WEATHER SUCH AS PRECIPITATION OR FOG.

ILZ001-002-007-009-015-016-024-210600-
NORTHWEST ILLINOIS

CITY           SKY/WX    TMP DP  RH WIND       PRES   REMARKS
MOLINE         FOG       42  40  92 E6        29.55F VSB 1/2
STERLING*      FOG       39  39 100 E5        29.59S VSB 1/2
SAVANNA*       DRIZZLE   39  39  99 E7        29.58F WCI  34
$$

ILZ003-004-008-010-011-017-018-210600-
NORTH CENTRAL ILLINOIS

CITY           SKY/WX    TMP DP  RH WIND       PRES   REMARKS
ROCKFORD       LGT RAIN  41  40  96 SE6       29.61F VSB 1/4
FREEPORT*      FOG       36  36  99 E5        29.61F VSB 1/4 WCI  32
ROCHELLE*      FOG       40  40 100 SE7       29.60F VSB 3/4
DE KALB*       FOG       42  42  99 SE7       29.61F VSB 1/2
$$

ILZ005-006-012>014-019>023-210600-
NORTHEAST ILLINOIS

CITY           SKY/WX    TMP DP  RH WIND       PRES   REMARKS
CHICAGO-OHARE  DRIZZLE   42  42 100 SE3       29.62F FOG
CHICAGO-MIDWAY CLOUDY    45  44  97 CALM      29.63F FOG
AURORA         FOG       44  43  96 SE6       29.61F VSB 1/4
LANSING*       CLOUDY    46  46 100 SE6       29.64F FOG
JOLIET*        CLOUDY    47  47 100 S6        29.63S FOG
WAUKEGAN       FOG       38  38 100 E6        29.63F VSB 1/4 WCI  33
DUPAGE AIRPORT LGT RAIN  45  43  93 SE5       29.61F FOG
KANKAKEE*      CLOUDY    47  46  97 CALM      29.63F
WHEELING       FOG       38  38 100 CALM      29.64F VSB 1/2
MORRIS*        DRIZZLE   46  45  97 CALM      29.62S
ROMEOVILLE*    CLOUDY    46  46 100 SE3       29.62F FOG
NORTHERLY ISL    N/A     38  37  97 CALM        N/A
$$

LMZ740>746-210600-
SOUTHERN LAKE MICHIGAN

STATION/POSITION SKY/WX   TEMP    WIND        PRES    VSBY  WAVE
                          AIR SEA DIR/SP/G                  HT/PER
                          (F)     (DEG/KT/KT) (MB)    (MI)  (FT/S)
HARRISON CRIB              40     160/  5/  6   N/A
BURNHAM HARBOR             37      10/  1       N/A
CALUMET HARBOR             46     110/  2/  4 1003.1F
BURNS HARBOR               49     130/  8/ 15 1004.4F
MICHIGAN CITY              48     130/ 11/ 14   N/A
$$

ILZ025>027-034>036-040-047-049-050-058-095>099-210600-
WEST-CENTRAL ILLINOIS

CITY           SKY/WX    TMP DP  RH WIND       PRES   REMARKS
QUINCY         CLEAR     47  46  97 SE9       29.52F FOG
GALESBURG*     FOG       45  45 100 SE5       29.55F VSB 1/4
MACOMB*        CLOUDY    46  46 100 SE8       29.56F FOG
JACKSONVILLE*  CLOUDY    47  46  99 SE5       29.56F FOG
PITTSFIELD*    CLOUDY    47  47 100 SE8       29.55F FOG
$$

ILZ028>032-037-038-041>044-048-051>054-059>061-210600-
CENTRAL ILLINOIS

CITY           SKY/WX    TMP DP  RH WIND       PRES   REMARKS
PONTIAC        MOCLDY    45  45 100 SE7       29.61F FOG
BLOOMINGTON    CLOUDY    49  48  97 S13       29.60F FOG
DECATUR        CLOUDY    52  52 100 S10       29.61F
PEORIA         CLOUDY    49  48  97 SE5       29.57F FOG
LACON*         CLOUDY    44  44 100 SE5       29.58S FOG
LINCOLN*       CLOUDY    53  52  97 S8        29.59F
SPRINGFIELD    PTCLDY    53  50  89 S13       29.59F
TAYLORVILLE    PTCLDY    51  49  95 S9        29.60S
$$

ILZ033-039-045-046-055>057-062-063-210600-
EAST-CENTRAL ILLINOIS

CITY           SKY/WX    TMP DP  RH WIND       PRES   REMARKS
CHAMPAIGN      CLOUDY    52  49  89 S15       29.63F
RANTOUL*       CLOUDY    52  51  97 S8        29.63F FOG
MATTOON        CLOUDY    53  50  89 S8        29.64S
PARIS*         CLOUDY    53  51  93 S12       29.67S
$$

ILZ079-100>102-210600-
SOUTHWEST ILLINOIS

CITY           SKY/WX    TMP DP  RH WIND       PRES   REMARKS
ALTON          PTCLDY    53  51  92 SE13      29.60R
BELLEVILLE     CLEAR     53  53  99 VRB6      29.60R
CAHOKIA*       PTCLDY    53  49  86 SE5       29.60R
SPARTA*        CLEAR     56  52  88 S9G17     29.63S
$$

ILZ064>066-069>071-074>076-080>082-084>086-088>090-092>094-210600-
SOUTH-CENTRAL ILLINOIS

CITY           SKY/WX    TMP DP  RH WIND       PRES   REMARKS
CARBONDALE     CLEAR     52  51  97 S6        29.66R
CAIRO*         CLEAR     55  52  89 S8        29.67S
EFFINGHAM*     PTCLDY    53  53 100 SE8       29.66S
MARION         CLEAR     52  52 100 S8        29.67R
MT. VERNON     CLEAR     51  50  96 S3        29.65S
CENTRALIA*     CLEAR     53  52  97 S9        29.63F
SALEM*         CLEAR     55  51  89 S7        29.64R
METROPOLIS*    CLEAR     51  50  99 CALM      29.69R
$$

ILZ067-068-072-073-078-083-087-091-210600-
SOUTHEAST ILLINOIS

CITY           SKY/WX    TMP DP  RH WIND       PRES   REMARKS
LAWRENCEVILLE  PTCLDY    52  51  97 S9        29.68S
FLORA*         CLEAR     49  48  95 SE7       29.66S
FAIRFIELD*     CLEAR     52  51  95 CALM      29.65F
HARRISBURG*    CLEAR     56  53  88 S9        29.66F
ROBINSON*      CLOUDY    52  51  95 SE8       29.69R
CARMI*         CLEAR     49  49 100 S6        29.66F
$$

ABBREVIATIONS USED IN REMARKS
   TC - TEMPERATURE IN CELSIUS
  WCI - WIND CHILL INDEX
   HX - HEAT INDEX
  VSB - VISIBILITY
$$





USA.gov is the U.S. government's official web portal to all federal, state and local government web resources and services.